This is the latest recevied weather packets stored in our database for station/object M0TUM-1. If no packets are shown the sender has not sent any weather packets the latest 10 day(s).
| Time | Temp. | Humidity | Pressure | Rain* | Wind** | Luminosity | Snow |
|---|---|---|---|---|---|---|---|
| 1777992540 | 13.89° C | 65% | 1012.8 hPa | 0 mm | - | 188 W/m² | - |
| 1777992239 | 13.89° C | 66% | 1012.6 hPa | 0 mm | - | 204 W/m² | - |
| 1777991935 | 14.44° C | 66% | 1012.6 hPa | 0 mm | - | 217 W/m² | - |
| 1777991633 | 14.44° C | 66% | 1012.8 hPa | 0 mm | - | 196 W/m² | - |
| 1777991330 | 13.89° C | 66% | 1012.8 hPa | 0 mm | - | 189 W/m² | - |
| 1777991027 | 14.44° C | 66% | 1012.8 hPa | 0 mm | - | 147 W/m² | - |
| 1777990724 | 14.44° C | 65% | 1012.6 hPa | 0 mm | - | 133 W/m² | - |
| 1777990422 | 15° C | 64% | 1012.7 hPa | 0 mm | - | 176 W/m² | - |
| 1777989815 | 15° C | 62% | 1012.7 hPa | 0 mm | - | 161 W/m² | - |
| 1777989512 | 15° C | 60% | 1012.7 hPa | 0 mm | - | 195 W/m² | - |
| 1777989208 | 15° C | 59% | 1012.5 hPa | 0 mm | - | 188 W/m² | - |
| 1777988904 | 15.56° C | 58% | 1012.3 hPa | 0 mm | - | 213 W/m² | - |
| 1777988601 | 15.56° C | 57% | 1012.5 hPa | 0 mm | - | 227 W/m² | - |
| 1777988298 | 16.11° C | 56% | 1012.6 hPa | 0 mm | - | 245 W/m² | - |
| 1777987995 | 16.67° C | 54% | 1012.4 hPa | 0 mm | - | 321 W/m² | - |
| 1777987690 | 16.11° C | 55% | 1012.6 hPa | 0 mm | - | 538 W/m² | - |
| 1777987388 | 15.56° C | 56% | 1012.6 hPa | 0 mm | - | 304 W/m² | - |
| 1777987085 | 15.56° C | 55% | 1012.4 hPa | 0 mm | - | 236 W/m² | - |
| 1777986782 | 15.56° C | 56% | 1012.4 hPa | 0 mm | - | 185 W/m² | - |
| 1777986480 | 15.56° C | 55% | 1012.1 hPa | 0 mm | - | 170 W/m² | - |
| 1777986178 | 15.56° C | 54% | 1012.3 hPa | 0 mm | - | 164 W/m² | - |
| 1777985874 | 16.11° C | 53% | 1012.5 hPa | 0 mm | - | 141 W/m² | - |
| 1777985572 | 16.11° C | 52% | 1012.4 hPa | 0 mm | - | 131 W/m² | - |
| 1777985268 | 16.67° C | 49% | 1012.4 hPa | 0 mm | - | 131 W/m² | - |
| 1777984965 | 17.22° C | 47% | 1012.4 hPa | 0 mm | - | 172 W/m² | - |
* Rain latest hour (hover to see other rain measurements)
** Current wind speed in m/s (hover to see current wind gust speed)